QPF
0.00 0.00 0.00 0.00 0.00 0.00 0.00 0.01 0.03 0.05 0.01 0.01 0.06 0.22 0.24 0.11 0.06 0.08 0.13 0.18 0.09 0.08 0.06 0.04 0.03 0.02 0.02 0.02 0.01 0.01 0.01 0.00 0.00 0.00 0.00 0.01 0.00 0.00 0.00 0.00 0.00 0.00 0.00 0.00
0.00 0.00 0.00 0.00 0.00 0.00 0.01 0.03 0.04 0.02 0.01 0.00 0.05 0.11 0.10 0.06 0.09 0.10 0.13 0.14 0.07 0.06 0.06 0.04 0.03 0.02 0.02 0.02 0.01 0.00 0.00 0.01 0.01 0.01 0.01 0.01 0.01 0.00 0.00 0.00 0.00 0.00 0.00 0.00
0.00 0.00 0.00 0.00 0.00 0.01 0.02 0.02 0.02 0.01 0.01 0.02 0.07 0.12 0.13 0.12 0.09 0.07 0.04 0.04 0.05 0.07 0.06 0.05 0.04 0.03 0.02 0.01 0.00 0.00 0.01 0.01 0.01 0.01 0.02 0.03 0.02 0.01 0.01 0.01 0.00 0.00 0.00 0.00
0.00 0.00 0.00 0.00 0.00 0.01 0.03 0.01 0.00 0.00 0.01 0.08 0.06 0.14 0.18 0.18 0.13 0.07 0.06 0.05 0.05 0.06 0.04 0.03 0.04 0.03 0.01 0.00 0.01 0.02 0.02 0.02 0.01 0.02 0.03 0.02 0.02 0.01 0.01 0.01 0.01 0.00 0.00 0.00
0.00 0.00 0.00 0.00 0.00 0.00 0.00 0.00 0.00 0.01 0.02 0.07 0.06 0.05 0.07 0.10 0.13 0.07 0.05 0.05 0.04 0.04 0.02 0.01 0.01 0.02 0.01 0.00 0.01 0.02 0.04 0.03 0.02 0.02 0.02 0.02 0.01 0.01 0.01 0.01 0.00 0.00 0.00 0.00
0.00 0.00 0.00 0.00 0.00 0.00 0.00 0.01 0.04 0.07 0.11 0.15 0.05 0.02 0.03 0.04 0.05 0.03 0.01 0.01 0.02 0.03 0.02 0.01 0.00 0.00 0.00 0.00 0.00 0.01 0.03 0.03 0.02 0.01 0.01 0.01 0.00 0.00 0.00 0.00 0.00 0.00 0.00 0.00
0.00 0.01 0.00 0.00 0.00 0.01 0.00 0.03 0.14 0.21 0.23 0.13 0.01 0.01 0.01 0.01 0.00 0.00 0.00 0.00 0.00 0.01 0.02 0.01 0.00 0.00 0.00 0.00 0.00 0.00 0.01 0.01 0.01 0.00 0.00 0.01 0.00 0.00 0.00 0.00 0.00 0.00 0.00 0.00
0.01 0.02 0.02 0.01 0.00 0.01 0.00 0.01 0.04 0.08 0.07 0.04 0.00 0.00 0.00 0.00 0.00 0.00 0.00 0.00 0.00 0.00 0.00 0.00 0.00 0.00 0.00 0.00 0.00 0.00 0.01 0.01 0.00 0.00 0.00 0.00 0.00 0.00 0.00 0.00 0.00 0.00 0.00 0.00
0.01 0.02 0.01 0.01 0.00 0.00 0.00 0.00 0.00 0.00 0.01 0.03 0.02 0.00 0.00 0.00 0.00 0.00 0.00 0.00 0.00 0.00 0.00 0.00 0.00 0.00 0.00 0.00 0.00 0.00 0.00 0.00 0.00 0.00 0.00 0.00 0.00 0.00 0.00 0.00 0.00 0.00 0.00 0.00
0.00 0.01 0.00 0.00 0.00 0.00 0.00 0.00 0.00 0.00 0.02 0.04 0.05 0.04 0.01 0.00 0.00 0.00 0.00 0.00 0.00 0.00 0.00 0.00 0.00 0.00 0.00 0.00 0.00 0.00 0.00 0.00 0.00 0.00 0.00 0.00 0.00 0.00 0.00 0.00 0.00 0.00 0.00 0.00
0.00 0.00 0.00 0.01 0.00 0.00 0.00 0.00 0.00 0.00 0.00 0.00 0.08 0.09 0.02 0.00 0.00 0.00 0.00 0.00 0.00 0.00 0.00 0.00 0.00 0.00 0.00 0.00 0.00 0.00 0.00 0.00 0.00 0.00 0.00 0.00 0.00 0.00 0.00 0.00 0.00 0.00 0.01 0.01
0.00 0.00 0.00 0.01 0.01 0.01 0.00 0.00 0.00 0.00 0.00 0.00 0.01 0.02 0.00 0.00 0.00 0.00 0.00 0.00 0.00 0.00 0.00 0.00 0.00 0.00 0.00 0.00 0.00 0.00 0.00 0.00 0.00 0.00 0.00 0.00 0.00 0.00 0.00 0.00 0.00 0.00 0.00 0.01
0.00 0.00 0.00 0.04 0.06 0.04 0.01 0.00 0.00 0.00 0.00 0.00 0.01 0.01 0.01 0.00 0.00 0.00 0.00 0.00 0.00 0.00 0.00 0.00 0.00 0.00 0.00 0.00 0.00 0.00 0.00 0.00 0.00 0.00 0.00 0.00 0.00 0.00 0.00 0.00 0.00 0.00 0.00 0.01
0.00 0.00 0.00 0.05 0.10 0.08 0.03 0.01 0.00 0.00 0.00 0.00 0.01 0.01 0.01 0.01 0.00 0.00 0.00 0.00 0.00 0.00 0.00 0.00 0.00 0.00 0.00 0.00 0.00 0.00 0.00 0.00 0.00 0.00 0.00 0.00 0.00 0.00 0.00 0.00 0.00 0.00 0.00 0.01
0.00 0.00 0.00 0.00 0.01 0.02 0.02 0.01 0.00 0.00 0.00 0.00 0.00 0.00 0.00 0.00 0.00 0.00 0.00 0.00 0.00 0.00 0.00 0.00 0.00 0.00 0.00 0.00 0.00 0.00 0.00 0.00 0.00 0.00 0.00 0.00 0.00 0.00 0.00 0.00 0.00 0.00 0.00 0.00
0.00 0.00 0.00 0.00 0.00 0.00 0.01 0.00 0.00 0.00 0.00 0.00 0.00 0.00 0.00 0.00 0.00 0.00 0.00 0.00 0.00 0.00 0.00 0.00 0.00 0.00 0.00 0.00 0.00 0.00 0.00 0.00 0.00 0.00 0.00 0.00 0.00 0.00 0.00 0.00 0.00 0.00 0.00 0.00
0.00 0.00 0.00 0.00 0.00 0.00 0.00 0.00 0.00 0.00 0.00 0.00 0.00 0.00 0.00 0.00 0.00 0.00 0.00 0.00 0.00 0.00 0.00 0.00 0.00 0.00 0.00 0.00 0.00 0.00 0.00 0.00 0.00 0.00 0.00 0.00 0.00 0.00 0.00 0.00 0.00 0.00 0.00 0.00
0.00 0.00 0.00 0.00 0.00 0.00 0.01 0.01 0.01 0.00 0.00 0.00 0.00 0.00 0.00 0.00 0.00 0.00 0.00 0.00 0.00 0.00 0.00 0.00 0.00 0.00 0.00 0.00 0.00 0.00 0.00 0.00 0.00 0.00 0.00 0.00 0.00 0.00 0.00 0.00 0.00 0.00 0.00 0.00
0.01 0.00 0.00 0.00 0.00 0.01 0.01 0.02 0.02 0.01 0.01 0.01 0.00 0.00 0.00 0.00 0.00 0.00 0.00 0.00 0.00 0.00 0.00 0.00 0.00 0.00 0.00 0.00 0.00 0.00 0.00 0.00 0.00 0.00 0.00 0.00 0.00 0.00 0.00 0.00 0.00 0.00 0.00 0.00
0.01 0.01 0.01 0.01 0.00 0.01 0.02 0.04 0.02 0.02 0.02 0.01 0.01 0.01 0.01 0.01 0.01 0.01 0.00 0.00 0.00 0.00 0.00 0.00 0.00 0.00 0.00 0.00 0.00 0.00 0.00 0.00 0.00 0.00 0.00 0.00 0.00 0.00 0.00 0.00 0.00 0.00 0.00 0.00
0.06 0.05 0.03 0.01 0.01 0.01 0.03 0.02 0.01 0.03 0.05 0.03 0.03 0.04 0.05 0.05 0.04 0.02 0.00 0.00 0.00 0.00 0.00 0.00 0.00 0.00 0.00 0.00 0.00 0.00 0.00 0.00 0.00 0.00 0.00 0.00 0.00 0.00 0.00 0.00 0.00 0.00 0.00 0.01
0.03 0.03 0.04 0.04 0.05 0.05 0.07 0.05 0.05 0.08 0.07 0.04 0.02 0.03 0.03 0.02 0.01 0.00 0.00 0.00 0.00 0.00 0.00 0.00 0.00 0.00 0.00 0.00 0.00 0.00 0.00 0.00 0.00 0.00 0.00 0.00 0.00 0.00 0.00 0.00 0.00 0.00 0.01 0.01
0.01 0.01 0.01 0.03 0.05 0.06 0.07 0.08 0.07 0.07 0.06 0.03 0.02 0.01 0.01 0.01 0.00 0.00 0.00 0.00 0.00 0.00 0.00 0.00 0.00 0.00 0.00 0.00 0.00 0.00 0.00 0.00 0.00 0.00 0.00 0.00 0.00 0.00 0.00 0.00 0.00 0.01 0.01 0.01
0.01 0.02 0.02 0.03 0.04 0.05 0.06 0.09 0.05 0.03 0.01 0.01 0.01 0.00 0.00 0.00 0.00 0.00 0.00 0.00 0.00 0.00 0.00 0.00 0.00 0.00 0.00 0.00 0.00 0.00 0.00 0.00 0.00 0.00 0.00 0.00 0.00 0.00 0.00 0.01 0.00 0.00 0.00 0.00
0.02 0.03 0.04 0.04 0.04 0.05 0.04 0.03 0.01 0.01 0.00 0.00 0.00 0.00 0.00 0.00 0.00 0.00 0.00 0.00 0.00 0.00 0.00 0.00 0.00 0.00 0.00 0.00 0.00 0.00 0.00 0.00 0.00 0.00 0.00 0.00 0.00 0.00 0.01 0.01 0.00 0.00 0.00 0.00
0.01 0.02 0.03 0.04 0.03 0.02 0.03 0.03 0.01 0.01 0.00 0.00 0.00 0.00 0.00 0.00 0.00 0.00 0.00 0.00 0.00 0.00 0.00 0.00 0.00 0.00 0.00 0.00 0.00 0.00 0.00 0.00 0.01 0.01 0.01 0.00 0.00 0.00 0.00 0.00 0.00 0.00 0.00 0.00
MSLP
1008.97 1009.35 1009.72 1010.11 1010.53 1011.01 1011.52 1012.02 1012.47 1012.80 1012.98 1012.99 1012.83 1012.53 1012.15 1011.77 1011.44 1011.22 1011.14 1011.21 1011.40 1011.68 1012.02 1012.37 1012.71 1013.01 1013.27 1013.49 1013.69 1013.87 1014.05 1014.22 1014.41 1014.59 1014.78 1014.98 1015.17 1015.36 1015.55 1015.72 1015.89 1016.02 1016.13 1016.21
1009.02 1009.32 1009.64 1010.00 1010.46 1011.02 1011.65 1012.31 1012.91 1013.36 1013.62 1013.62 1013.40 1012.99 1012.46 1011.93 1011.49 1011.21 1011.13 1011.26 1011.55 1011.95 1012.39 1012.81 1013.16 1013.42 1013.60 1013.71 1013.78 1013.86 1013.98 1014.13 1014.33 1014.56 1014.80 1015.04 1015.24 1015.41 1015.54 1015.65 1015.74 1015.83 1015.92 1016.02
1008.86 1009.06 1009.30 1009.63 1010.11 1010.75 1011.52 1012.34 1013.11 1013.71 1014.05 1014.10 1013.85 1013.36 1012.73 1012.08 1011.53 1011.19 1011.08 1011.22 1011.57 1012.04 1012.55 1013.01 1013.36 1013.59 1013.69 1013.72 1013.71 1013.73 1013.81 1013.97 1014.21 1014.49 1014.78 1015.05 1015.27 1015.42 1015.51 1015.56 1015.59 1015.63 1015.70 1015.82
1008.51 1008.59 1008.73 1009.02 1009.52 1010.25 1011.15 1012.13 1013.07 1013.83 1014.30 1014.42 1014.18 1013.65 1012.94 1012.19 1011.54 1011.11 1010.95 1011.06 1011.41 1011.89 1012.42 1012.89 1013.25 1013.45 1013.53 1013.51 1013.48 1013.48 1013.57 1013.77 1014.06 1014.40 1014.76 1015.07 1015.31 1015.45 1015.50 1015.50 1015.48 1015.47 1015.52 1015.64
1008.07 1008.01 1008.05 1008.30 1008.81 1009.60 1010.62 1011.76 1012.86 1013.78 1014.37 1014.57 1014.37 1013.83 1013.06 1012.22 1011.48 1010.94 1010.69 1010.74 1011.03 1011.49 1012.01 1012.47 1012.83 1013.04 1013.12 1013.12 1013.11 1013.15 1013.29 1013.55 1013.91 1014.33 1014.75 1015.10 1015.36 1015.50 1015.53 1015.49 1015.42 1015.37 1015.39 1015.49
1007.64 1007.45 1007.40 1007.60 1008.11 1008.95 1010.06 1011.31 1012.55 1013.58 1014.29 1014.57 1014.41 1013.87 1013.06 1012.15 1011.31 1010.67 1010.31 1010.26 1010.47 1010.87 1011.34 1011.80 1012.16 1012.40 1012.53 1012.59 1012.65 1012.78 1013.01 1013.35 1013.79 1014.28 1014.75 1015.15 1015.43 1015.57 1015.58 1015.51 1015.41 1015.32 1015.30 1015.36
1007.35 1007.06 1006.94 1007.09 1007.59 1008.44 1009.58 1010.89 1012.19 1013.30 1014.08 1014.41 1014.28 1013.74 1012.92 1011.95 1011.03 1010.29 1009.82 1009.66 1009.77 1010.09 1010.52 1010.97 1011.36 1011.65 1011.86 1012.02 1012.19 1012.42 1012.75 1013.19 1013.71 1014.25 1014.77 1015.19 1015.48 1015.62 1015.62 1015.53 1015.40 1015.28 1015.21 1015.23
1007.29 1006.94 1006.76 1006.87 1007.33 1008.15 1009.27 1010.57 1011.86 1012.97 1013.74 1014.09 1013.97 1013.44 1012.60 1011.60 1010.63 1009.81 1009.26 1009.00 1009.03 1009.28 1009.68 1010.12 1010.54 1010.91 1011.22 1011.49 1011.78 1012.13 1012.56 1013.07 1013.64 1014.22 1014.75 1015.18 1015.47 1015.60 1015.59 1015.49 1015.34 1015.20 1015.10 1015.07
1007.47 1007.11 1006.91 1006.98 1007.39 1008.13 1009.16 1010.36 1011.56 1012.58 1013.30 1013.60 1013.47 1012.94 1012.10 1011.11 1010.13 1009.28 1008.69 1008.37 1008.35 1008.56 1008.93 1009.38 1009.85 1010.29 1010.70 1011.09 1011.50 1011.94 1012.44 1013.01 1013.59 1014.17 1014.68 1015.09 1015.35 1015.47 1015.46 1015.35 1015.20 1015.05 1014.93 1014.88
1007.83 1007.51 1007.32 1007.37 1007.71 1008.35 1009.23 1010.26 1011.28 1012.15 1012.74 1012.96 1012.79 1012.26 1011.45 1010.50 1009.56 1008.75 1008.16 1007.84 1007.80 1008.00 1008.37 1008.85 1009.37 1009.88 1010.38 1010.86 1011.35 1011.87 1012.41 1012.97 1013.54 1014.08 1014.54 1014.89 1015.12 1015.21 1015.19 1015.09 1014.95 1014.81 1014.70 1014.64
1008.27 1008.04 1007.90 1007.94 1008.21 1008.71 1009.40 1010.21 1011.00 1011.66 1012.08 1012.18 1011.96 1011.43 1010.68 1009.81 1008.96 1008.24 1007.72 1007.45 1007.45 1007.67 1008.06 1008.57 1009.13 1009.70 1010.26 1010.81 1011.35 1011.89 1012.43 1012.96 1013.47 1013.93 1014.32 1014.60 1014.77 1014.84 1014.81 1014.73 1014.62 1014.51 1014.43 1014.37
1008.67 1008.55 1008.49 1008.54 1008.74 1009.10 1009.60 1010.16 1010.69 1011.11 1011.33 1011.31 1011.02 1010.51 1009.83 1009.08 1008.37 1007.78 1007.38 1007.21 1007.27 1007.53 1007.96 1008.50 1009.09 1009.69 1010.29 1010.87 1011.42 1011.95 1012.46 1012.93 1013.37 1013.74 1014.03 1014.24 1014.36 1014.40 1014.37 1014.31 1014.24 1014.18 1014.14 1014.11
1008.93 1008.94 1008.97 1009.05 1009.21 1009.45 1009.75 1010.07 1010.35 1010.52 1010.55 1010.39 1010.05 1009.56 1008.97 1008.35 1007.80 1007.37 1007.12 1007.07 1007.21 1007.54 1008.00 1008.55 1009.16 1009.77 1010.38 1010.96 1011.50 1012.00 1012.46 1012.87 1013.22 1013.50 1013.71 1013.85 1013.92 1013.94 1013.93 1013.90 1013.88 1013.87 1013.87 1013.89
1009.02 1009.16 1009.29 1009.41 1009.54 1009.68 1009.83 1009.94 1009.99 1009.95 1009.79 1009.51 1009.12 1008.65 1008.14 1007.67 1007.27 1007.00 1006.90 1006.96 1007.19 1007.57 1008.06 1008.62 1009.21 1009.82 1010.41 1010.97 1011.49 1011.96 1012.37 1012.73 1013.01 1013.23 1013.38 1013.48 1013.52 1013.53 1013.54 1013.54 1013.57 1013.60 1013.66 1013.71
1008.97 1009.22 1009.43 1009.61 1009.74 1009.82 1009.84 1009.79 1009.66 1009.43 1009.12 1008.73 1008.30 1007.84 1007.41 1007.05 1006.79 1006.66 1006.67 1006.83 1007.13 1007.53 1008.02 1008.57 1009.15 1009.72 1010.29 1010.83 1011.33 1011.78 1012.17 1012.49 1012.75 1012.94 1013.07 1013.14 1013.19 1013.21 1013.23 1013.27 1013.33 1013.40 1013.48 1013.56
1008.84 1009.17 1009.46 1009.69 1009.83 1009.89 1009.83 1009.67 1009.40 1009.04 1008.60 1008.12 1007.64 1007.19 1006.80 1006.52 1006.35 1006.31 1006.41 1006.62 1006.94 1007.35 1007.82 1008.33 1008.87 1009.41 1009.95 1010.47 1010.96 1011.41 1011.81 1012.15 1012.42 1012.62 1012.77 1012.86 1012.92 1012.97 1013.01 1013.07 1013.15 1013.23 1013.32 1013.40
1008.70 1009.07 1009.42 1009.70 1009.87 1009.93 1009.84 1009.61 1009.25 1008.79 1008.27 1007.71 1007.18 1006.71 1006.34 1006.08 1005.95 1005.96 1006.08 1006.30 1006.62 1006.99 1007.42 1007.88 1008.37 1008.87 1009.38 1009.90 1010.40 1010.88 1011.31 1011.70 1012.02 1012.27 1012.47 1012.61 1012.71 1012.78 1012.85 1012.91 1012.99 1013.06 1013.13 1013.18
1008.62 1009.00 1009.37 1009.69 1009.90 1009.97 1009.88 1009.63 1009.22 1008.70 1008.11 1007.50 1006.92 1006.41 1006.01 1005.75 1005.61 1005.60 1005.71 1005.90 1006.16 1006.48 1006.85 1007.24 1007.68 1008.14 1008.63 1009.15 1009.67 1010.19 1010.69 1011.15 1011.55 1011.88 1012.14 1012.34 1012.49 1012.59 1012.67 1012.73 1012.78 1012.82 1012.84 1012.85
1008.60 1008.96 1009.34 1009.68 1009.92 1010.02 1009.94 1009.69 1009.27 1008.72 1008.09 1007.44 1006.81 1006.26 1005.82 1005.51 1005.34 1005.28 1005.33 1005.47 1005.66 1005.91 1006.20 1006.53 1006.90 1007.32 1007.79 1008.31 1008.86 1009.44 1010.00 1010.53 1011.02 1011.43 1011.77 1012.03 1012.22 1012.34 1012.42 1012.46 1012.48 1012.47 1012.44 1012.38
1008.59 1008.92 1009.29 1009.63 1009.90 1010.02 1009.98 1009.75 1009.34 1008.80 1008.15 1007.47 1006.82 1006.23 1005.74 1005.38 1005.15 1005.04 1005.02 1005.08 1005.21 1005.37 1005.59 1005.85 1006.17 1006.55 1006.99 1007.51 1008.08 1008.68 1009.30 1009.89 1010.44 1010.93 1011.32 1011.63 1011.85 1011.98 1012.05 1012.06 1012.04 1011.98 1011.89 1011.78
1008.54 1008.83 1009.17 1009.51 1009.79 1009.95 1009.94 1009.74 1009.37 1008.85 1008.22 1007.55 1006.88 1006.27 1005.75 1005.36 1005.08 1004.92 1004.84 1004.84 1004.90 1005.00 1005.15 1005.34 1005.60 1005.94 1006.35 1006.84 1007.40 1008.02 1008.65 1009.28 1009.86 1010.38 1010.80 1011.13 1011.35 1011.48 1011.53 1011.51 1011.44 1011.34 1011.21 1011.07
1008.38 1008.63 1008.94 1009.28 1009.56 1009.74 1009.77 1009.63 1009.31 1008.83 1008.25 1007.61 1006.97 1006.37 1005.86 1005.46 1005.16 1004.97 1004.86 1004.82 1004.83 1004.88 1004.97 1005.11 1005.31 1005.59 1005.95 1006.40 1006.93 1007.51 1008.12 1008.73 1009.30 1009.81 1010.23 1010.54 1010.74 1010.85 1010.86 1010.81 1010.71 1010.59 1010.44 1010.30
1008.08 1008.29 1008.59 1008.91 1009.20 1009.41 1009.48 1009.39 1009.14 1008.74 1008.23 1007.66 1007.08 1006.54 1006.07 1005.69 1005.42 1005.23 1005.12 1005.06 1005.05 1005.07 1005.12 1005.21 1005.35 1005.57 1005.86 1006.24 1006.69 1007.20 1007.75 1008.29 1008.81 1009.26 1009.62 1009.88 1010.04 1010.10 1010.09 1010.00 1009.89 1009.75 1009.62 1009.50
1007.65 1007.85 1008.13 1008.44 1008.74 1008.97 1009.09 1009.07 1008.89 1008.58 1008.18 1007.71 1007.23 1006.77 1006.38 1006.08 1005.85 1005.71 1005.62 1005.58 1005.57 1005.57 1005.59 1005.64 1005.73 1005.87 1006.07 1006.35 1006.70 1007.11 1007.54 1007.98 1008.39 1008.75 1009.02 1009.20 1009.30 1009.30 1009.24 1009.13 1009.00 1008.87 1008.77 1008.69
1007.17 1007.36 1007.64 1007.95 1008.26 1008.52 1008.68 1008.73 1008.64 1008.44 1008.14 1007.80 1007.44 1007.11 1006.82 1006.61 1006.47 1006.39 1006.35 1006.34 1006.34 1006.34 1006.34 1006.35 1006.38 1006.44 1006.55 1006.72 1006.94 1007.21 1007.51 1007.81 1008.08 1008.31 1008.46 1008.54 1008.55 1008.48 1008.37 1008.23 1008.10 1007.99 1007.92 1007.90
1006.72 1006.93 1007.21 1007.53 1007.86 1008.14 1008.35 1008.46 1008.46 1008.36 1008.19 1007.98 1007.75 1007.54 1007.38 1007.28 1007.23 1007.22 1007.24 1007.27 1007.29 1007.29 1007.27 1007.24 1007.21 1007.19 1007.20 1007.25 1007.34 1007.46 1007.61 1007.75 1007.87 1007.95 1007.98 1007.94 1007.84 1007.70 1007.52 1007.35 1007.21 1007.11 1007.08 1007.12
Thickness
5810 5796 5789 5798 5806 5804 5793 5776 5765 5770 5790 5782 5767 5751 5748 5755 5763 5761 5761 5757 5755 5754 5759 5760 5759 5758 5755 5751 5748 5746 5742 5739 5737 5734 5730 5727 5725 5723 5722 5719 5714 5710 5707 5704
5801 5796 5810 5819 5817 5808 5791 5772 5767 5778 5792 5782 5765 5749 5750 5759 5759 5758 5759 5754 5752 5751 5753 5754 5754 5755 5753 5749 5747 5745 5741 5738 5735 5732 5728 5725 5722 5721 5720 5717 5713 5709 5705 5702
5802 5813 5826 5817 5808 5797 5787 5774 5773 5775 5785 5779 5762 5743 5747 5755 5757 5757 5761 5758 5755 5753 5751 5750 5752 5753 5752 5749 5747 5747 5742 5739 5735 5732 5729 5726 5721 5718 5716 5714 5711 5707 5703 5700
5811 5823 5820 5810 5803 5798 5783 5794 5792 5782 5769 5749 5747 5723 5738 5747 5747 5754 5757 5758 5758 5757 5755 5752 5752 5752 5753 5753 5752 5748 5743 5739 5734 5730 5725 5720 5716 5712 5712 5710 5708 5705 5702 5699
5809 5820 5814 5804 5806 5808 5799 5804 5788 5768 5750 5742 5746 5737 5741 5751 5745 5753 5758 5760 5762 5761 5759 5756 5756 5756 5756 5756 5753 5748 5743 5737 5733 5728 5724 5718 5714 5712 5710 5708 5705 5702 5701 5699
5816 5828 5823 5817 5820 5817 5810 5795 5772 5750 5729 5716 5744 5747 5744 5756 5759 5763 5766 5767 5766 5766 5764 5762 5763 5761 5759 5758 5754 5749 5741 5735 5731 5727 5723 5718 5713 5709 5705 5702 5699 5698 5698 5697
5796 5804 5813 5818 5806 5807 5801 5772 5737 5712 5700 5713 5762 5763 5760 5780 5785 5781 5775 5773 5772 5771 5768 5764 5763 5761 5758 5756 5753 5749 5740 5734 5730 5726 5722 5718 5713 5708 5703 5700 5698 5696 5694 5692
5777 5764 5790 5809 5806 5794 5796 5785 5750 5730 5728 5742 5770 5767 5775 5795 5798 5796 5789 5783 5779 5776 5774 5770 5767 5764 5760 5757 5753 5747 5740 5734 5730 5725 5721 5716 5711 5706 5704 5701 5697 5693 5690 5688
5783 5772 5802 5816 5820 5810 5794 5794 5798 5775 5765 5743 5755 5772 5779 5794 5793 5792 5789 5785 5780 5779 5777 5773 5770 5767 5762 5757 5752 5747 5740 5733 5728 5724 5719 5714 5709 5704 5701 5697 5694 5691 5689 5686
5804 5784 5805 5815 5817 5815 5809 5803 5793 5776 5750 5731 5729 5741 5755 5776 5781 5787 5786 5784 5782 5781 5779 5776 5772 5768 5763 5757 5751 5746 5738 5731 5727 5722 5717 5716 5710 5705 5701 5696 5692 5688 5685 5681
5811 5788 5792 5799 5786 5789 5797 5794 5789 5784 5777 5752 5718 5727 5774 5785 5789 5788 5789 5789 5786 5783 5781 5777 5773 5769 5763 5757 5749 5742 5736 5729 5724 5720 5716 5711 5707 5703 5700 5695 5691 5687 5683 5679
5808 5793 5779 5782 5788 5793 5793 5794 5790 5769 5763 5770 5756 5748 5799 5802 5802 5798 5795 5794 5792 5788 5784 5780 5773 5767 5760 5754 5748 5741 5735 5729 5724 5720 5715 5710 5705 5701 5697 5693 5690 5686 5681 5676
5799 5779 5759 5762 5756 5762 5767 5785 5793 5789 5777 5768 5756 5754 5793 5799 5800 5801 5798 5795 5792 5788 5784 5779 5771 5764 5757 5752 5747 5741 5735 5730 5726 5721 5714 5709 5704 5700 5695 5691 5687 5682 5677 5673
5799 5777 5762 5746 5739 5741 5745 5769 5784 5783 5773 5766 5764 5764 5777 5786 5790 5796 5796 5794 5791 5786 5781 5774 5766 5760 5755 5750 5744 5739 5734 5731 5726 5720 5714 5708 5703 5698 5694 5689 5684 5679 5674 5669
5791 5772 5774 5776 5776 5765 5760 5771 5785 5784 5784 5775 5776 5776 5782 5790 5793 5795 5795 5792 5786 5780 5776 5770 5763 5756 5751 5746 5741 5737 5732 5728 5723 5717 5711 5706 5702 5697 5692 5687 5682 5676 5671 5666
5781 5767 5768 5769 5780 5781 5778 5785 5788 5790 5792 5788 5786 5785 5799 5800 5799 5794 5792 5787 5780 5776 5773 5768 5762 5755 5748 5743 5738 5734 5729 5725 5720 5713 5708 5704 5699 5694 5688 5684 5679 5674 5668 5662
5774 5766 5757 5756 5775 5775 5765 5784 5787 5788 5792 5789 5779 5785 5795 5790 5788 5787 5787 5784 5780 5776 5773 5768 5763 5756 5750 5744 5739 5732 5728 5724 5717 5710 5705 5701 5696 5690 5686 5681 5676 5669 5663 5658
5771 5761 5756 5754 5756 5739 5770 5792 5789 5783 5787 5794 5791 5791 5792 5788 5790 5791 5790 5785 5780 5777 5774 5770 5765 5758 5753 5747 5740 5733 5728 5721 5714 5708 5703 5699 5693 5688 5683 5677 5671 5665 5659 5652
5776 5760 5752 5749 5745 5752 5773 5777 5776 5767 5765 5784 5783 5782 5787 5789 5785 5783 5789 5787 5781 5778 5776 5772 5768 5762 5754 5747 5741 5732 5725 5718 5711 5706 5701 5697 5692 5685 5678 5672 5666 5660 5653 5647
5764 5758 5746 5745 5738 5736 5756 5770 5778 5764 5745 5769 5774 5770 5772 5772 5755 5760 5780 5782 5779 5777 5775 5771 5767 5762 5753 5746 5740 5729 5721 5715 5709 5705 5701 5696 5689 5681 5674 5668 5661 5655 5648 5642
5734 5736 5735 5740 5741 5752 5761 5770 5765 5732 5729 5755 5762 5761 5762 5758 5755 5765 5775 5776 5774 5772 5770 5767 5762 5756 5749 5744 5736 5725 5718 5713 5709 5705 5698 5691 5684 5677 5670 5664 5657 5650 5643 5638
5743 5737 5735 5735 5726 5726 5751 5755 5737 5730 5744 5749 5754 5757 5758 5760 5763 5767 5768 5768 5767 5765 5763 5760 5754 5749 5745 5738 5729 5719 5713 5710 5705 5699 5691 5685 5678 5672 5667 5659 5652 5645 5638 5632
5755 5756 5751 5743 5735 5736 5737 5732 5735 5739 5740 5747 5752 5756 5757 5755 5756 5758 5758 5758 5758 5755 5753 5751 5746 5740 5736 5730 5722 5711 5707 5703 5697 5690 5683 5677 5672 5666 5660 5652 5646 5640 5634 5628
5757 5762 5752 5741 5733 5731 5733 5736 5739 5741 5743 5747 5750 5751 5750 5745 5746 5746 5744 5743 5743 5743 5742 5740 5736 5730 5724 5721 5715 5709 5703 5697 5689 5682 5676 5670 5664 5659 5654 5648 5643 5637 5632 5626
5752 5749 5741 5730 5727 5727 5723 5730 5735 5737 5740 5740 5739 5738 5735 5732 5730 5729 5727 5726 5726 5727 5726 5725 5721 5717 5713 5710 5705 5701 5696 5689 5681 5675 5669 5663 5658 5653 5649 5645 5640 5635 5631 5624
5751 5743 5735 5725 5728 5724 5717 5726 5731 5728 5726 5725 5722 5719 5720 5718 5714 5713 5711 5711 5710 5710 5709 5707 5705 5703 5701 5698 5694 5690 5686 5680 5672 5665 5660 5656 5652 5649 5646 5641 5637 5634 5628 5623